When you browse on this site, cookies collect data to enhance your experience and personalize the content and advertising you see.
Visit our Privacy Policy to learn more. By continuing to use the site, you agree to this use of cookies and data.
  • In Austria
  • List of Countries
  • For 7 days
  • Water Temperature
  • Weather Map
  • News
  • Weather Widgets
  • user-avatar
    Login

    Hourly Weather El Llano

    Today, 22 August, Thursday

    Time Temperature Precipitation Wind Pressure Humidity
    00:00 +14°C° 0.3 mm 0 mps 594 mmHg 97%
    01:00 +13°C° 0.3 mm 0 mps 593 mmHg 96%
    02:00 +13°C° 0.3 mm 0 mps 593 mmHg 96%
    03:00 +14°C° 0 mm 0 mps 593 mmHg 95%
    04:00 +14°C° 0 mm 0 mps 593 mmHg 94%
    05:00 +14°C° 0 mm 0 mps 593 mmHg 94%
    06:00 +15°C° 0 mm 0 mps 594 mmHg 87%
    07:00 +17°C° 0 mm 0 mps 595 mmHg 81%
    08:00 +18°C° 0 mm 0 mps 595 mmHg 75%
    09:00 +21°C° 0.9 mm 1 mps 596 mmHg 71%
    10:00 +22°C° 0.9 mm 1 mps 596 mmHg 67%
    11:00 +24°C° 0.9 mm 2 mps 596 mmHg 63%
    12:00 +24°C° 2.1 mm 2 mps 595 mmHg 64%
    13:00 +23°C° 2.1 mm 2 mps 595 mmHg 65%
    14:00 +22°C° 2.1 mm 3 mps 594 mmHg 66%
    15:00 +21°C° 1.7 mm 2 mps 594 mmHg 72%
    16:00 +20°C° 1.7 mm 2 mps 593 mmHg 77%
    17:00 +20°C° 1.7 mm 1 mps 593 mmHg 83%
    18:00 +20°C° 0.7 mm 1 mps 593 mmHg 83%
    19:00 +19°C° 0.7 mm 1 mps 594 mmHg 84%
    20:00 +18°C° 0.7 mm 1 mps 594 mmHg 85%
    21:00 +18°C° 0.1 mm 1 mps 594 mmHg 86%
    22:00 +18°C° 0.1 mm 1 mps 594 mmHg 86%
    23:00 +16°C° 0.1 mm 1 mps 594 mmHg 87%

    Tomorrow, 23 August, Friday

    Time Temperature Precipitation Wind Pressure Humidity
    00:00 +16°C° 0 mm 1 mps 593 mmHg 88%
    01:00 +15°C° 0 mm 1 mps 593 mmHg 89%
    02:00 +15°C° 0 mm 1 mps 593 mmHg 90%
    03:00 +14°C° 0 mm 1 mps 593 mmHg 90%
    04:00 +14°C° 0 mm 1 mps 592 mmHg 90%
    05:00 +14°C° 0 mm 1 mps 592 mmHg 90%
    06:00 +15°C° 0 mm 1 mps 593 mmHg 84%
    07:00 +18°C° 0 mm 1 mps 594 mmHg 78%
    08:00 +20°C° 0 mm 1 mps 595 mmHg 72%
    09:00 +22°C° 0 mm 1 mps 596 mmHg 66%
    10:00 +23°C° 0 mm 1 mps 596 mmHg 60%
    11:00 +25°C° 0 mm 2 mps 596 mmHg 54%
    12:00 +25°C° 0.6 mm 2 mps 596 mmHg 54%
    13:00 +25°C° 0.6 mm 3 mps 596 mmHg 54%
    14:00 +26°C° 0.6 mm 3 mps 595 mmHg 54%
    15:00 +24°C° 1.7 mm 3 mps 595 mmHg 62%
    16:00 +22°C° 1.7 mm 3 mps 594 mmHg 69%
    17:00 +20°C° 1.7 mm 3 mps 593 mmHg 77%
    18:00 +19°C° 2.8 mm 3 mps 593 mmHg 80%
    19:00 +17°C° 2.8 mm 3 mps 593 mmHg 84%
    20:00 +15°C° 2.8 mm 4 mps 593 mmHg 88%
    21:00 +16°C° 0.1 mm 3 mps 593 mmHg 88%
    22:00 +15°C° 0.1 mm 2 mps 593 mmHg 88%
    23:00 +15°C° 0.1 mm 1 mps 593 mmHg 87%

    Day after tomorrow, 24 August, Saturday

    Time Temperature Precipitation Wind Pressure Humidity
    00:00 +15°C° 0 mm 1 mps 593 mmHg 87%
    01:00 +15°C° 0 mm 1 mps 593 mmHg 87%
    02:00 +15°C° 0 mm 1 mps 593 mmHg 86%
    03:00 +15°C° 0 mm 1 mps 593 mmHg 86%
    04:00 +15°C° 0 mm 1 mps 593 mmHg 85%
    05:00 +15°C° 0 mm 1 mps 593 mmHg 85%
    06:00 +16°C° 0 mm 1 mps 594 mmHg 80%
    07:00 +18°C° 0 mm 1 mps 595 mmHg 75%
    08:00 +20°C° 0 mm 1 mps 595 mmHg 69%
    09:00 +21°C° 0 mm 1 mps 596 mmHg 64%
    10:00 +23°C° 0 mm 1 mps 596 mmHg 59%
    11:00 +25°C° 0 mm 1 mps 596 mmHg 54%
    12:00 +25°C° 0.3 mm 2 mps 596 mmHg 54%
    13:00 +26°C° 0.3 mm 2 mps 596 mmHg 53%
    14:00 +26°C° 0.3 mm 2 mps 595 mmHg 52%
    15:00 +25°C° 1.2 mm 2 mps 595 mmHg 59%
    16:00 +22°C° 1.2 mm 3 mps 594 mmHg 66%
    17:00 +21°C° 1.2 mm 3 mps 593 mmHg 73%
    18:00 +20°C° 2.3 mm 3 mps 593 mmHg 79%
    19:00 +18°C° 2.3 mm 2 mps 594 mmHg 84%
    20:00 +17°C° 2.3 mm 2 mps 594 mmHg 89%
    21:00 +17°C° 0.4 mm 2 mps 594 mmHg 89%
    22:00 +18°C° 0.4 mm 1 mps 594 mmHg 88%
    23:00 +16°C° 0.4 mm 1 mps 594 mmHg 88%

    25 August, Sunday

    Time Temperature Precipitation Wind Pressure Humidity
    00:00 +16°C° 0 mm 1 mps 593 mmHg 87%
    01:00 +16°C° 0 mm 1 mps 593 mmHg 86%
    02:00 +16°C° 0 mm 1 mps 592 mmHg 86%
    03:00 +15°C° 0 mm 1 mps 592 mmHg 85%
    04:00 +15°C° 0 mm 1 mps 592 mmHg 85%
    05:00 +14°C° 0 mm 1 mps 592 mmHg 84%
    06:00 +16°C° 0 mm 1 mps 593 mmHg 78%
    07:00 +19°C° 0 mm 1 mps 594 mmHg 72%
    08:00 +21°C° 0 mm 1 mps 595 mmHg 66%
    09:00 +23°C° 0.1 mm 1 mps 595 mmHg 61%
    10:00 +24°C° 0.1 mm 1 mps 596 mmHg 57%
    11:00 +26°C° 0.1 mm 1 mps 596 mmHg 52%
    12:00 +26°C° 0.6 mm 1 mps 595 mmHg 51%
    13:00 +26°C° 0.6 mm 2 mps 595 mmHg 50%
    14:00 +27°C° 0.6 mm 2 mps 594 mmHg 49%
    15:00 +25°C° 0.5 mm 2 mps 594 mmHg 56%
    16:00 +24°C° 0.5 mm 3 mps 593 mmHg 64%
    17:00 +21°C° 0.5 mm 3 mps 593 mmHg 71%
    18:00 +20°C° 1 mm 3 mps 593 mmHg 75%
    19:00 +19°C° 1 mm 2 mps 593 mmHg 78%
    20:00 +17°C° 1 mm 2 mps 593 mmHg 82%
    21:00 +17°C° 0.5 mm 2 mps 593 mmHg 83%
    22:00 +18°C° 0.5 mm 1 mps 593 mmHg 84%
    23:00 +18°C° 0.5 mm 1 mps 593 mmHg 85%

    26 August, Monday

    Time Temperature Precipitation Wind Pressure Humidity
    00:00 +16°C° 0.2 mm 1 mps 592 mmHg 85%
    01:00 +16°C° 0.2 mm 1 mps 592 mmHg 85%
    02:00 +16°C° 0.2 mm 1 mps 592 mmHg 86%
    03:00 +16°C° 0.1 mm 1 mps 592 mmHg 87%
    04:00 +15°C° 0.1 mm 1 mps 592 mmHg 87%
    05:00 +15°C° 0.1 mm 1 mps 591 mmHg 88%
    06:00 +18°C° 0 mm 1 mps 592 mmHg 82%
    07:00 +19°C° 0 mm 1 mps 593 mmHg 76%
    08:00 +21°C° 0 mm 1 mps 594 mmHg 71%
    09:00 +22°C° 0.1 mm 1 mps 594 mmHg 65%
    10:00 +24°C° 0.1 mm 1 mps 595 mmHg 60%
    11:00 +25°C° 0.1 mm 1 mps 595 mmHg 54%
    12:00 +26°C° 0.4 mm 1 mps 595 mmHg 53%
    13:00 +26°C° 0.4 mm 1 mps 594 mmHg 51%
    14:00 +27°C° 0.4 mm 1 mps 594 mmHg 49%
    15:00 +25°C° 1.4 mm 1 mps 593 mmHg 59%
    16:00 +23°C° 1.4 mm 2 mps 592 mmHg 69%
    17:00 +20°C° 1.4 mm 2 mps 591 mmHg 79%
    18:00 +19°C° 3.9 mm 2 mps 591 mmHg 82%
    19:00 +17°C° 3.9 mm 2 mps 592 mmHg 85%
    20:00 +15°C° 3.9 mm 2 mps 592 mmHg 88%
    21:00 +16°C° 0.1 mm 1 mps 592 mmHg 87%
    22:00 +16°C° 0.1 mm 1 mps 592 mmHg 87%
    23:00 +15°C° 0.1 mm 0 mps 593 mmHg 86%

    27 August, Tuesday

    Time Temperature Precipitation Wind Pressure Humidity
    00:00 +15°C° 0 mm 0 mps 592 mmHg 87%
    01:00 +14°C° 0 mm 0 mps 592 mmHg 88%
    02:00 +14°C° 0 mm 0 mps 591 mmHg 89%
    03:00 +14°C° 0 mm 0 mps 591 mmHg 89%
    04:00 +13°C° 0 mm 0 mps 591 mmHg 89%
    05:00 +13°C° 0 mm 0 mps 591 mmHg 89%
    06:00 +15°C° 0 mm 0 mps 592 mmHg 83%
    07:00 +16°C° 0 mm 0 mps 593 mmHg 77%
    08:00 +18°C° 0 mm 0 mps 594 mmHg 72%
    09:00 +21°C° 0.1 mm 1 mps 594 mmHg 65%
    10:00 +23°C° 0.1 mm 1 mps 595 mmHg 59%
    11:00 +25°C° 0.1 mm 2 mps 595 mmHg 53%
    12:00 +25°C° 0.3 mm 2 mps 595 mmHg 52%
    13:00 +26°C° 0.3 mm 3 mps 594 mmHg 51%
    14:00 +26°C° 0.3 mm 4 mps 594 mmHg 49%
    15:00 +25°C° 1.1 mm 3 mps 594 mmHg 58%
    16:00 +22°C° 1.1 mm 3 mps 593 mmHg 66%
    17:00 +21°C° 1.1 mm 3 mps 593 mmHg 75%
    18:00 +19°C° 2.2 mm 3 mps 593 mmHg 79%
    19:00 +18°C° 2.2 mm 3 mps 593 mmHg 82%
    20:00 +16°C° 2.2 mm 2 mps 593 mmHg 86%
    21:00 +16°C° 0.1 mm 2 mps 593 mmHg 85%
    22:00 +15°C° 0.1 mm 1 mps 593 mmHg 85%
    23:00 +15°C° 0.1 mm 1 mps 593 mmHg 84%
    Show more